Weather History for KNPA - December, 2012

Change the Weather History Date:

Wednesday, December 5, 2012

  Actual Average (KPNS) Record (KPNS)
Temperature  
Mean Temperature 63 °F 56 °F  
Max Temperature 73 °F 65 °F 79 °F (1958)
Min Temperature 53 °F 46 °F 26 °F (1893)
Degree Days  
Heating Degree Days 2 10  
Month to date heating degree days 48  
Since 1 July heating degree days 260  
Cooling Degree Days 0 1  
Month to date cooling degree days 5  
Year to date cooling degree days 2601  
Growing Degree Days 13 (Base 50)    
Moisture  
Dew Point 59 °F    
Average Humidity 95    
Maximum Humidity 100    
Minimum Humidity 71    
Precipitation  
Precipitation 0.00 in 0.16 in 3.30 in (2004)
Month to date precipitation 0.79  
Year to date precipitation 61.51  
Snow  
Snow 0.00 in 0.00 in 0.00 in (2002)
Month to date snowfall 0.0  
Since 1 July snowfall 0.0  
Snow Depth -    
Sea Level Pressure  
Sea Level Pressure 30.12 in    
Wind  
Wind Speed 2 mph (ENE)    
Max Wind Speed 10 mph    
Max Gust Speed -    
Visibility 5 miles    
Events Fog , Rain    
T = Trace of Precipitation, MM = Missing Value Source: NWS Daily Summary

Daily Weather History Graph

Daily Weather History Graph

Search for Another Location

Airport or City:

Trip Planner

Search our weather history database for the weather conditions in past years. The results will help you decide how hot, cold, wet, or windy it might be!

Date:

Astronomy

Dec. 05, 2012 Rise Set
Actual Time 6:31 AM CST 4:48 PM CST
Civil Twilight 6:05 AM CST 5:14 PM CST
Nautical Twilight 5:35 AM CST 5:44 PM CST
Astronomical Twilight 5:06 AM CST 6:13 PM CST
Moon 11:16 PM CST (12/5) 11:14 AM CST (12/5)
Length of Visible Light 11h 09m
Length of Day
10h 16m
Waning Gibbous, 59% of the Moon is Illuminated
Dec 5
Waning Gibbous
Dec 6
Last Quarter
Dec 13
New
Dec 19
First Quarter
Dec 28
Full

Hourly Weather History & Observations

Time (CST) Temp. Dew Point Humidity Pressure Visibility Wind Dir Wind Speed Gust Speed Precip Events Conditions
12:34 AM 57.2 °F 57.2 °F 100% 30.15 in 2.0 mi Calm Calm - 0.00 in Rain Light Rain
12:41 AM 57.2 °F 57.2 °F 100% 30.15 in 1.8 mi Calm Calm - 0.00 in   Clear
12:49 AM 55.4 °F 55.4 °F 100% 30.15 in 3.0 mi NNE 3.5 mph - 0.00 in   Clear
12:56 AM 57.0 °F 55.9 °F 96% 30.16 in 8.0 mi NE 3.5 mph - 0.00 in   Clear
1:56 AM 53.1 °F 53.1 °F 100% 30.16 in 3.0 mi Calm Calm - 0.00 in   Clear
2:14 AM 57.2 °F 55.4 °F 94% 30.15 in 2.5 mi Calm Calm - N/A   Clear
2:27 AM 57.2 °F 57.2 °F 100% 30.15 in 1.0 mi Calm Calm - 0.00 in Rain Light Rain
2:38 AM 57.2 °F 57.2 °F 100% 30.15 in 4.0 mi Calm Calm - 0.00 in   Clear
2:56 AM 57.0 °F 57.0 °F 100% 30.16 in 3.0 mi Calm Calm - 0.00 in   Partly Cloudy
3:07 AM 53.6 °F 53.6 °F 100% 30.15 in 1.8 mi Calm Calm - N/A   Scattered Clouds
3:17 AM 55.4 °F 55.4 °F 100% 30.15 in 0.5 mi Calm Calm - N/A Fog Fog
3:30 AM 57.2 °F 57.2 °F 100% 30.15 in 1.2 mi Calm Calm - N/A   Mostly Cloudy
3:45 AM 57.2 °F 57.2 °F 100% 30.15 in 2.5 mi Calm Calm - 0.00 in Rain Light Rain
3:56 AM 57.9 °F 57.9 °F 100% 30.15 in 2.5 mi Calm Calm - 0.00 in   Scattered Clouds
4:11 AM 57.2 °F 57.2 °F 100% 30.14 in 1.8 mi Calm Calm - N/A   Scattered Clouds
4:15 AM 57.2 °F 57.2 °F 100% 30.14 in 3.0 mi Calm Calm - N/A   Partly Cloudy
4:49 AM 57.2 °F 57.2 °F 100% 30.15 in 1.8 mi ENE 3.5 mph - N/A   Clear
4:56 AM 59.0 °F 59.0 °F 100% 30.15 in 1.2 mi Calm Calm - N/A   Clear
5:01 AM 59.0 °F 59.0 °F 100% 30.15 in 4.0 mi North 3.5 mph - 0.00 in Rain Light Rain
5:56 AM 60.1 °F 60.1 °F 100% 30.16 in 10.0 mi ENE 4.6 mph - 0.00 in   Mostly Cloudy
6:56 AM 62.1 °F 61.0 °F 96% 30.17 in 10.0 mi ENE 6.9 mph - N/A   Mostly Cloudy
8:56 AM 64.9 °F 63.0 °F 93% 30.18 in 10.0 mi East 8.1 mph - N/A   Mostly Cloudy
9:56 AM 69.1 °F 63.0 °F 81% 30.17 in 10.0 mi East 9.2 mph - N/A   Mostly Cloudy
10:56 AM 72.0 °F 62.1 °F 71% 30.15 in 10.0 mi East 10.4 mph - N/A   Mostly Cloudy
11:56 AM 72.0 °F 64.0 °F 76% 30.12 in 10.0 mi East 8.1 mph - N/A   Mostly Cloudy
12:56 PM 73.9 °F 64.0 °F 71% 30.09 in 10.0 mi East 8.1 mph - N/A   Mostly Cloudy
1:56 PM 72.0 °F 64.9 °F 78% 30.07 in 10.0 mi East 9.2 mph - N/A   Mostly Cloudy
2:56 PM 70.0 °F 64.9 °F 84% 30.06 in 10.0 mi East 8.1 mph - N/A   Mostly Cloudy
3:56 PM 70.0 °F 64.9 °F 84% 30.06 in 10.0 mi East 6.9 mph - N/A   Mostly Cloudy
4:56 PM 66.9 °F 64.9 °F 93% 30.06 in 10.0 mi ENE 4.6 mph - N/A   Mostly Cloudy
5:56 PM 66.0 °F 64.9 °F 96% 30.07 in 10.0 mi ENE 3.5 mph - N/A   Mostly Cloudy
6:56 PM 66.0 °F 64.0 °F 93% 30.07 in 10.0 mi ENE 5.8 mph - N/A   Mostly Cloudy
7:56 PM 64.0 °F 62.1 °F 93% 30.08 in 10.0 mi ENE 4.6 mph - N/A   Mostly Cloudy
8:56 PM 63.0 °F 63.0 °F 100% 30.07 in 10.0 mi ENE 4.6 mph - N/A   Scattered Clouds
9:56 PM 62.1 °F 62.1 °F 100% 30.08 in 10.0 mi Calm Calm - 0.00 in Rain Light Rain
10:31 PM 57.2 °F 57.2 °F 100% 30.07 in 1.5 mi Calm Calm - 0.00 in   Clear
10:40 PM 57.2 °F 57.2 °F 100% 30.07 in 0.5 mi Calm Calm - 0.00 in Fog Fog
10:56 PM 57.0 °F 57.0 °F 100% 30.07 in 0.8 mi Calm Calm - 0.00 in   Clear
11:03 PM 55.4 °F 55.4 °F 100% 30.07 in 1.0 mi Calm Calm - N/A   Mist
11:14 PM 57.2 °F 57.2 °F 100% 30.06 in 0.2 mi NE 3.5 mph - 0.00 in Fog , Rain Light Rain
11:23 PM 57.2 °F 57.2 °F 100% 30.06 in 1.0 mi NE 3.5 mph - 0.00 in Rain Light Rain
11:30 PM 59.0 °F 59.0 °F 100% 30.06 in 1.5 mi NNE 3.5 mph - 0.00 in   Scattered Clouds
11:35 PM 59.0 °F 59.0 °F 100% 30.06 in 3.0 mi NE 3.5 mph - 0.00 in   Partly Cloudy
11:56 PM 60.1 °F 60.1 °F 100% 30.06 in 10.0 mi NE 3.5 mph - 0.00 in   Clear